This is the latest recevied weather packets stored in our database for station/object KC1HBM. If no packets are shown the sender has not sent any weather packets the latest 10 day(s).
| Time | Temp. | Humidity | Pressure | Rain* | Wind** | Luminosity | Snow |
|---|---|---|---|---|---|---|---|
| 1777701654 | 4.44° C | 81% | 1009.9 hPa | 0 mm | - | 0 W/m² | - |
| 1777701351 | 3.89° C | 82% | 1009.7 hPa | 0 mm | - | 0 W/m² | - |
| 1777701050 | 3.89° C | 82% | 1009.8 hPa | 0 mm | - | 0 W/m² | - |
| 1777700748 | 3.89° C | 82% | 1010 hPa | 0 mm | - | 0 W/m² | - |
| 1777700444 | 3.89° C | 82% | 1009.8 hPa | 0 mm | - | 0 W/m² | - |
| 1777700141 | 3.89° C | 82% | 1009.7 hPa | 0 mm | - | 0 W/m² | - |
| 1777699839 | 3.89° C | 81% | 1009.7 hPa | 0 mm | - | 0 W/m² | - |
| 1777699538 | 3.89° C | 80% | 1009.5 hPa | 0 mm | - | 0 W/m² | - |
| 1777699235 | 3.89° C | 82% | 1009.8 hPa | 0 mm | - | 0 W/m² | - |
| 1777698933 | 3.89° C | 82% | 1009.8 hPa | 0 mm | - | 0 W/m² | - |
| 1777698631 | 3.89° C | 82% | 1009.9 hPa | 0 mm | - | 0 W/m² | - |
| 1777698326 | 3.89° C | 82% | 1009.7 hPa | 0 mm | - | 0 W/m² | - |
| 1777698024 | 3.89° C | 82% | 1009.7 hPa | 0 mm | - | 0 W/m² | - |
| 1777697720 | 3.89° C | 83% | 1009.8 hPa | 0 mm | - | 0 W/m² | - |
| 1777697417 | 4.44° C | 84% | 1009.6 hPa | 0 mm | - | 0 W/m² | - |
| 1777697114 | 4.44° C | 84% | 1009.7 hPa | 0 mm | - | 0 W/m² | - |
| 1777696810 | 4.44° C | 84% | 1009.6 hPa | 0 mm | - | 0 W/m² | - |
| 1777696508 | 4.44° C | 83% | 1009.6 hPa | 0 mm | - | 0 W/m² | - |
| 1777696204 | 4.44° C | 84% | 1009.7 hPa | 0 mm | - | 0 W/m² | - |
| 1777695899 | 4.44° C | 86% | 1009.5 hPa | 0 mm | - | 0 W/m² | - |
| 1777695597 | 4.44° C | 86% | 1009.4 hPa | 0 mm | - | 0 W/m² | - |
| 1777695295 | 5° C | 86% | 1009.3 hPa | 0 mm | - | 0 W/m² | - |
| 1777694991 | 5° C | 83% | 1009.4 hPa | 0 mm | - | 0 W/m² | - |
| 1777694688 | 4.44° C | 81% | 1009.6 hPa | 0 mm | - | 0 W/m² | - |
| 1777694384 | 4.44° C | 79% | 1009.4 hPa | 0 mm | - | 0 W/m² | - |
* Rain latest hour (hover to see other rain measurements)
** Current wind speed in m/s (hover to see current wind gust speed)